Hourly Data Report for April 29, 2017

OTTAWA INTL A
ONTARIO

45°19'00.000" N
75°40'00.000" W
114.90 m
6106001
71628
YOW

Download Data

Hourly Data (April 2017)
Hourly Data Report for April 29, 2017
TIME
LST
Temp Definition
°C
Dew Point Definition
°C
Rel Hum Definition
%
Precip. Amount Definition
mm

Wind Dir Definition
10's deg

Wind Spd Definition
km/h
Visibility Definition
km
Stn Press Definition
kPa
Hmdx Definition


Wind Chill Definition


Weather Definition


00:00 12.8 7.1 68   20 14 24.1 99.99     LegendNANA
01:00 12.3 7.0 70   20 11 24.1 99.92     Mostly Cloudy
02:00 12.5 6.4 66   23 14 24.1 99.92     LegendNANA
03:00 12.2 6.9 70   22 15 24.1 99.89     LegendNANA
04:00 12.1 6.6 69   22 13 24.1 99.86     Mostly Cloudy
05:00 11.8 7.0 72   23 15 24.1 99.96     LegendNANA
06:00 12.1 7.6 74   25 10 24.1 99.98     LegendNANA
07:00 12.5 7.2 70   23 11 24.1 100.00     Cloudy
08:00 13.1 6.5 64   25 15 24.1 100.04     LegendNANA
09:00 14.0 6.2 59   27 25 24.1 100.11     LegendNANA
10:00 14.1 5.5 56   30 24 24.1 100.10     Clear
11:00 15.9 5.0 48   31 32 24.1 100.09     LegendNANA
12:00 16.5 3.3 41   30 27 24.1 100.08     LegendNANA
13:00 15.9 2.1 39   30 30 24.1 100.08     Mainly Clear
14:00 15.6 1.1 37   31 41 24.1 100.23     LegendNANA
15:00 15.0 -0.7 34   30 32 24.1 100.34     LegendNANA
16:00 14.1 -1.9 33   28 41 24.1 100.41     Clear
17:00 13.8 -0.6 37   29 27 24.1 100.54     LegendNANA
18:00 10.7 -3.0 38   33 35 24.1 100.69     LegendNANA
19:00 7.7 -4.4 42   34 34 24.1 100.89     Mainly Clear
20:00 6.4 -5.0 44   35 23 24.1 101.02     LegendNANA
21:00 5.8 -4.9 46   33 21 24.1 101.10     LegendNANA
22:00 5.1 -5.0 48   35 18 24.1 101.14     Clear
23:00 4.7 -5.1 49   35 16 24.1 101.22     LegendNANA

Notes on Data Quality.

Legend

  • E = Estimated
  • M = Missing
  • NA = Not Available*
  • [empty] = Indicates an unobserved value
Date modified: